N875CD KFXE-KMLB

Flight info

Callsign N875CD
Flight time N/A
Altitude 8000
Route SHANC T208 VALKA
Aircraft C172/L-SFG/C

Departure

Time 2026-05-01 14:39
Airport Fort Lauderdale Executive Airport (KFXE)

Arrival

Time N/A
Airport Melbourne Orlando International Airport (KMLB)
Time Latitude Longitude Altitude Speed Heading
2026-05-01 14:04 26.19636 -80.17505 10 ft 0 kts 179°
2026-05-01 14:30 26.19629 -80.17487 10 ft 0 kts 50°
2026-05-01 14:34 26.19667 -80.17477 10 ft 11 kts 22°
2026-05-01 14:34 26.19691 -80.17372 10 ft 18 kts 82°
2026-05-01 14:35 26.19706 -80.17207 10 ft 24 kts 86°
2026-05-01 14:35 26.19727 -80.16996 7 ft 30 kts 83°
2026-05-01 14:35 26.19749 -80.16749 7 ft 33 kts 84°
2026-05-01 14:35 26.19778 -80.16484 7 ft 35 kts 83°
2026-05-01 14:36 26.19853 -80.16303 7 ft 0 kts 44°
2026-05-01 14:37 26.19915 -80.16280 7 ft 18 kts 320°
2026-05-01 14:37 26.19918 -80.16455 7 ft 41 kts 265°
2026-05-01 14:38 26.19871 -80.16927 16 ft 77 kts 266°
2026-05-01 14:38 26.19822 -80.17495 231 ft 70 kts 259°
2026-05-01 14:38 26.19737 -80.18027 394 ft 71 kts 260°
2026-05-01 14:38 26.19682 -80.18589 562 ft 73 kts 264°
2026-05-01 14:39 26.19649 -80.18962 672 ft 73 kts 264°
2026-05-01 14:39 26.19589 -80.19688 916 ft 71 kts 261°
2026-05-01 14:39 26.19527 -80.20244 1063 ft 74 kts 262°
2026-05-01 14:39 26.19470 -80.20836 1212 ft 77 kts 263°
2026-05-01 14:40 26.19414 -80.21439 1358 ft 80 kts 264°
2026-05-01 14:40 26.19358 -80.22067 1506 ft 82 kts 263°
2026-05-01 14:40 26.19303 -80.22701 1650 ft 83 kts 263°
2026-05-01 14:40 26.19248 -80.23344 1794 ft 85 kts 263°
2026-05-01 14:41 26.19193 -80.24006 1939 ft 85 kts 263°
2026-05-01 14:41 26.19134 -80.24669 2084 ft 86 kts 262°
2026-05-01 14:41 26.19080 -80.25328 2231 ft 86 kts 262°
2026-05-01 14:41 26.19029 -80.25982 2393 ft 84 kts 262°
2026-05-01 14:42 26.19159 -80.26618 2543 ft 86 kts 298°
2026-05-01 14:42 26.19616 -80.27034 2712 ft 85 kts 327°
2026-05-01 14:42 26.20134 -80.27318 2894 ft 81 kts 329°
2026-05-01 14:42 26.20474 -80.27496 3015 ft 78 kts 329°
2026-05-01 14:43 26.20875 -80.27702 3163 ft 74 kts 329°
2026-05-01 14:43 26.21346 -80.27942 3305 ft 74 kts 328°
2026-05-01 14:43 26.21809 -80.28191 3447 ft 74 kts 325°
2026-05-01 14:43 26.22277 -80.28448 3585 ft 75 kts 333°
2026-05-01 14:44 26.22768 -80.28660 3727 ft 76 kts 332°
2026-05-01 14:44 26.23764 -80.29067 4009 ft 76 kts 335°
2026-05-01 14:44 26.24250 -80.29288 4151 ft 75 kts 329°
2026-05-01 14:45 26.24725 -80.29534 4293 ft 74 kts 327°
2026-05-01 14:45 26.25625 -80.30062 4571 ft 72 kts 327°
2026-05-01 14:45 26.26077 -80.30314 4711 ft 71 kts 325°
2026-05-01 14:46 26.26520 -80.30559 4838 ft 72 kts 326°
2026-05-01 14:46 26.27471 -80.31106 5040 ft 81 kts 327°
2026-05-01 14:46 26.27981 -80.31404 5140 ft 85 kts 327°
2026-05-01 14:47 26.28514 -80.31717 5240 ft 88 kts 327°
2026-05-01 14:47 26.29064 -80.32037 5339 ft 90 kts 327°
2026-05-01 14:47 26.29630 -80.32365 5437 ft 92 kts 328°
2026-05-01 14:48 26.30775 -80.33038 5628 ft 94 kts 326°
2026-05-01 14:48 26.31377 -80.33353 5720 ft 96 kts 338°
2026-05-01 14:48 26.32679 -80.33718 5911 ft 96 kts 339°
2026-05-01 14:49 26.33956 -80.34145 6101 ft 95 kts 337°
2026-05-01 14:49 26.35239 -80.34550 6290 ft 96 kts 340°
2026-05-01 14:50 26.36312 -80.34862 6448 ft 95 kts 337°
2026-05-01 14:50 26.37793 -80.35314 6662 ft 94 kts 338°
2026-05-01 14:51 26.38434 -80.35506 6757 ft 93 kts 339°
2026-05-01 14:51 26.39688 -80.35881 6939 ft 93 kts 339°
2026-05-01 14:52 26.40923 -80.36243 7009 ft 94 kts 337°
2026-05-01 14:52 26.41566 -80.36459 7007 ft 98 kts 336°
2026-05-01 14:52 26.42693 -80.36848 7002 ft 101 kts 337°
2026-05-01 14:53 26.43231 -80.37027 7002 ft 102 kts 338°
2026-05-01 14:53 26.43921 -80.37241 7002 ft 103 kts 338°
2026-05-01 14:53 26.44610 -80.37451 7002 ft 103 kts 338°
2026-05-01 14:53 26.45313 -80.37661 7002 ft 103 kts 339°
2026-05-01 14:54 26.46007 -80.37862 7003 ft 103 kts 340°
2026-05-01 14:54 26.46713 -80.38067 7004 ft 103 kts 339°
2026-05-01 14:54 26.47409 -80.38277 7000 ft 103 kts 338°
2026-05-01 14:54 26.48101 -80.38501 6999 ft 103 kts 337°
2026-05-01 14:55 26.48801 -80.38681 6994 ft 105 kts 349°
2026-05-01 14:55 26.49541 -80.38667 6998 ft 106 kts 356°
2026-05-01 14:55 26.50285 -80.38618 6999 ft 105 kts 353°
2026-05-01 14:55 26.51020 -80.38644 6997 ft 105 kts 351°
2026-05-01 14:56 26.51750 -80.38684 6997 ft 105 kts 350°
2026-05-01 14:56 26.52479 -80.38733 7000 ft 104 kts 350°
2026-05-01 14:56 26.53212 -80.38789 7000 ft 104 kts 349°
2026-05-01 14:56 26.53939 -80.38847 7000 ft 104 kts 349°
2026-05-01 14:57 26.54671 -80.38905 7001 ft 105 kts 349°
2026-05-01 14:57 26.56132 -80.39022 7001 ft 105 kts 349°
2026-05-01 14:57 26.56866 -80.39077 6999 ft 105 kts 349°
2026-05-01 14:58 26.57605 -80.39130 6998 ft 105 kts 349°
2026-05-01 14:58 26.58330 -80.39188 6998 ft 105 kts 349°
2026-05-01 14:58 26.59066 -80.39246 6998 ft 105 kts 349°
2026-05-01 14:58 26.59792 -80.39301 6998 ft 105 kts 349°
2026-05-01 14:59 26.60519 -80.39355 6999 ft 105 kts 349°
2026-05-01 14:59 26.61249 -80.39414 6999 ft 105 kts 349°
2026-05-01 14:59 26.61992 -80.39473 6997 ft 105 kts 349°
2026-05-01 14:59 26.62718 -80.39526 6994 ft 105 kts 349°
2026-05-01 15:00 26.64185 -80.39638 6993 ft 105 kts 348°
2026-05-01 15:00 26.64916 -80.39693 6992 ft 105 kts 349°
2026-05-01 15:00 26.65646 -80.39753 6993 ft 105 kts 349°
2026-05-01 15:01 26.66380 -80.39811 6992 ft 105 kts 348°
2026-05-01 15:01 26.67105 -80.39862 6992 ft 104 kts 349°
2026-05-01 15:01 26.67832 -80.39917 6995 ft 104 kts 349°
2026-05-01 15:01 26.68560 -80.39973 6995 ft 104 kts 349°
2026-05-01 15:02 26.69292 -80.40035 6995 ft 104 kts 348°
2026-05-01 15:02 26.69774 -80.40075 6994 ft 105 kts 348°
2026-05-01 15:02 26.70746 -80.40153 6995 ft 105 kts 348°
2026-05-01 15:02 26.71476 -80.40206 6992 ft 105 kts 349°
2026-05-01 15:03 26.72210 -80.40263 6992 ft 105 kts 349°
2026-05-01 15:03 26.72940 -80.40334 6993 ft 104 kts 344°
2026-05-01 15:03 26.73608 -80.40583 6996 ft 101 kts 331°
2026-05-01 15:03 26.74256 -80.40899 6992 ft 101 kts 328°
2026-05-01 15:04 26.74886 -80.41238 6991 ft 100 kts 328°
2026-05-01 15:04 26.75522 -80.41579 6992 ft 100 kts 328°
2026-05-01 15:04 26.76152 -80.41917 6991 ft 100 kts 327°
2026-05-01 15:04 26.76780 -80.42255 6992 ft 100 kts 327°
2026-05-01 15:05 26.76899 -80.42320 6993 ft 100 kts 328°
2026-05-01 15:05 26.77344 -80.42562 6993 ft 100 kts 327°
2026-05-01 15:05 26.77970 -80.42902 6993 ft 100 kts 327°
2026-05-01 15:05 26.78600 -80.43244 6993 ft 100 kts 327°
2026-05-01 15:06 26.79228 -80.43585 6993 ft 100 kts 328°
2026-05-01 15:06 26.79861 -80.43932 6991 ft 101 kts 328°
2026-05-01 15:06 26.80495 -80.44278 6992 ft 101 kts 327°
2026-05-01 15:06 26.81126 -80.44621 6988 ft 100 kts 327°
2026-05-01 15:07 26.81756 -80.44959 6988 ft 100 kts 328°
2026-05-01 15:07 26.82391 -80.45303 6991 ft 100 kts 327°
2026-05-01 15:07 26.82802 -80.45527 6991 ft 100 kts 327°
2026-05-01 15:07 26.83648 -80.45991 6992 ft 100 kts 327°
2026-05-01 15:08 26.84278 -80.46339 6991 ft 100 kts 327°
2026-05-01 15:08 26.84903 -80.46676 6989 ft 100 kts 328°
2026-05-01 15:08 26.85538 -80.47022 6990 ft 100 kts 327°
2026-05-01 15:08 26.86166 -80.47362 6990 ft 100 kts 327°
2026-05-01 15:09 26.86763 -80.47687 6990 ft 100 kts 327°
2026-05-01 15:09 26.87186 -80.47908 6989 ft 101 kts 332°
2026-05-01 15:09 26.87859 -80.48160 6987 ft 102 kts 335°
2026-05-01 15:09 26.88531 -80.48426 6989 ft 101 kts 334°
2026-05-01 15:10 26.88974 -80.48605 6990 ft 101 kts 333°
2026-05-01 15:10 26.90151 -80.49074 6988 ft 101 kts 333°
2026-05-01 15:10 26.90810 -80.49335 6989 ft 101 kts 334°
2026-05-01 15:11 26.91456 -80.49641 6989 ft 100 kts 328°
2026-05-01 15:11 26.92705 -80.50352 6990 ft 100 kts 326°
2026-05-01 15:11 26.93328 -80.50712 6990 ft 100 kts 326°
2026-05-01 15:12 26.93949 -80.51072 6990 ft 100 kts 327°
2026-05-01 15:12 26.95196 -80.51792 6989 ft 100 kts 326°
2026-05-01 15:12 26.95813 -80.52145 6991 ft 100 kts 326°
2026-05-01 15:13 26.97674 -80.53218 6991 ft 100 kts 326°
2026-05-01 15:14 26.98916 -80.53923 6990 ft 99 kts 327°
2026-05-01 15:14 26.99530 -80.54275 6992 ft 99 kts 326°
2026-05-01 15:14 27.00946 -80.54439 6991 ft 106 kts
2026-05-01 15:15 27.02416 -80.54213 6993 ft 107 kts
2026-05-01 15:15 27.03898 -80.53984 6992 ft 106 kts
2026-05-01 15:16 27.05379 -80.53828 6992 ft 105 kts 354°
2026-05-01 15:16 27.06855 -80.53797 6987 ft 106 kts 354°
2026-05-01 15:17 27.08330 -80.53769 6985 ft 105 kts 353°
2026-05-01 15:18 27.10532 -80.53728 6988 ft 105 kts 353°
2026-05-01 15:18 27.11256 -80.53715 6990 ft 105 kts 353°
2026-05-01 15:19 27.13466 -80.53650 6988 ft 106 kts 357°
2026-05-01 15:19 27.14938 -80.53492 6989 ft 106 kts 358°
2026-05-01 15:19 27.15684 -80.53408 6987 ft 106 kts 358°
2026-05-01 15:20 27.17157 -80.53242 6988 ft 106 kts 358°
2026-05-01 15:20 27.17900 -80.53157 6986 ft 106 kts 359°
2026-05-01 15:20 27.18484 -80.53097 6986 ft 106 kts 357°
2026-05-01 15:21 27.18989 -80.53059 6984 ft 106 kts 356°
2026-05-01 15:21 27.19730 -80.53000 6987 ft 106 kts 357°
2026-05-01 15:21 27.20463 -80.52948 6988 ft 105 kts 355°
2026-05-01 15:21 27.20716 -80.52929 6987 ft 106 kts 356°
2026-05-01 15:22 27.22127 -80.52823 6985 ft 106 kts 355°
2026-05-01 15:22 27.22872 -80.52766 6985 ft 105 kts 356°
2026-05-01 15:22 27.23608 -80.52715 6986 ft 106 kts 356°
2026-05-01 15:23 27.24341 -80.52656 6984 ft 106 kts 356°
2026-05-01 15:23 27.25080 -80.52603 6987 ft 106 kts 355°
2026-05-01 15:23 27.25815 -80.52548 6985 ft 106 kts 356°
2026-05-01 15:23 27.26552 -80.52492 6986 ft 106 kts 356°
2026-05-01 15:24 27.27287 -80.52438 6986 ft 105 kts 356°
2026-05-01 15:24 27.28022 -80.52380 6987 ft 105 kts 356°
2026-05-01 15:24 27.28743 -80.52320 6985 ft 103 kts 356°
2026-05-01 15:24 27.29457 -80.52268 6985 ft 102 kts 355°
2026-05-01 15:25 27.30166 -80.52209 6986 ft 101 kts 356°
2026-05-01 15:25 27.30879 -80.52152 6987 ft 101 kts 355°
2026-05-01 15:25 27.31578 -80.52099 6988 ft 101 kts 355°
2026-05-01 15:25 27.32286 -80.52040 6986 ft 101 kts 356°
2026-05-01 15:26 27.32996 -80.51985 6987 ft 101 kts 356°
2026-05-01 15:26 27.33701 -80.51933 6988 ft 101 kts 355°
2026-05-01 15:26 27.34402 -80.51878 6987 ft 101 kts 355°
2026-05-01 15:26 27.35103 -80.51820 6986 ft 101 kts 355°
2026-05-01 15:27 27.35815 -80.51777 6987 ft 100 kts 351°
2026-05-01 15:27 27.36505 -80.51771 6987 ft 100 kts 351°
2026-05-01 15:27 27.37202 -80.51771 6985 ft 100 kts 351°
2026-05-01 15:28 27.38601 -80.51766 6983 ft 100 kts 352°
2026-05-01 15:28 27.39299 -80.51766 6983 ft 99 kts 352°
2026-05-01 15:28 27.39992 -80.51763 6984 ft 98 kts 352°
2026-05-01 15:29 27.41183 -80.51760 6990 ft 99 kts 351°
2026-05-01 15:29 27.41875 -80.51726 6986 ft 100 kts 357°
2026-05-01 15:29 27.43278 -80.51593 6985 ft 101 kts 357°
2026-05-01 15:30 27.44678 -80.51452 6984 ft 100 kts 356°
2026-05-01 15:31 27.47481 -80.51182 6982 ft 100 kts 356°
2026-05-01 15:31 27.48888 -80.51052 6985 ft 102 kts 357°
2026-05-01 15:32 27.50327 -80.50920 6987 ft 103 kts 356°
2026-05-01 15:32 27.51694 -80.50784 6846 ft 95 kts 358°
2026-05-01 15:33 27.53710 -80.50618 6460 ft 97 kts 357°
2026-05-01 15:34 27.55706 -80.50468 6073 ft 91 kts 358°